STARLINK-34020, 63939

Orbit data source: Space-Track

STARLINK-34020, 63939 is a payload satellite owned by SpaceX/Seattle (US) in LEO that was launched on Tue, 13 May 2025 UTC via an FALCON 9 launch vehicle from the Air Force Western Test Range (AFWTR). Payload-class satellites include a variety of spacecraft equipped with specific instruments for various scientific and technological missions. These include communications satellites like Starlink; space stations such as the ISS; scientific satellites like the Hubble; Earth observation satellites from companies like Planet Labs, Umbra, and HawkEye 360; GPS; miniature CubeSats for education and research; and military/defense satellites.

Loading next visibility...
Identifier
63939, 2025-098P
Orbit
LEO
Country
Flag of USUS
Related business
Manufacturer
SpaceX/Seattle
Mission
Operational Commercial Communications
Bus & Motor
STARLINK V2MO, Unknown motor
Mass
575 kg wet, ~530 kg dry
Launch date (UTC)
2025-05-13 (1 year ago)
Launch vehicle
FALCON 9
Launch site
Air Force Western Test Range (AFWTR)
Object type
Payload
Rocket body
Debris
Shape & HBR
Box + 2 Pan, 17.7 m
Radar Cross Section
36.964 m², Large (>1 m²)

Expand to show TLE details & history
Last TLE update: 1 day ago

TLE from 1 day ago
0 STARLINK-34020
1 63939U 25098P   26170.95678200  .00004463  00000-0  38158-3 0  9992
2 63939  70.0020  16.5007 0002917 265.9015  94.1811 14.98334670 61878
Epoch: 2026-06-19T22:57Z
TLE epoch observation values (Epoch: 2026-06-19T22:57:45.964Z)
Latitude
-0.00002°
Longitude
123.88086°
Altitude
574.614 km
Speed
7.574 km/s
True Right ascension
01h 06m 00s
True Declination
0° 00' 00"
Sunlit
Object was in daylight at epoch
Visualization orbit readout
Latitude
Unknown
Longitude
Unknown
Altitude
Unknown
Speed
Unknown
Apparent Right ascension
Unknown
Apparent Declination
Unknown
Sunlit
N/A
Visualization observer readout
Local Sidereal Time
10:20:18
Azimuth
Unknown
Elevation
Unknown
Doppler factor
Unknown
Orbital elements
Apogee altitude
572.016 km
Perigee altitude
567.963 km
Semi-major axis
6,948.126 km
Eccentricity
0.00029
Inclination
70.002°
RAAN
16.5007°
Arg. of periapsis
265.9015°
True anomaly
94.21444°
Mean anomaly
94.1811°
Eccentric anomaly
94.19777°
Mean motion
3.7475 °/min
Orbital period
96.06 mins
BSTAR
0.00038158
Loading maneuver chart data...
Computing Atmospheric mass density...
Loading historical data...
Loading historical data...
Loading historical data...
Loading historical data...
Loading historical data...
Loading historical data...
Loading historical data...

Documentation

Showing up to 5 results
|